Weather History for Naples, FL

Change the Weather History Date:

Saturday, March 30, 2013

  Actual Average Record
Temperature  
Mean Temperature 66 °F 71 °F  
Max Temperature 78 °F 81 °F 89 °F (2002)
Min Temperature 54 °F 61 °F 42 °F (1955)
Degree Days  
Heating Degree Days 0 0  
Month to date heating degree days 88 19  
Since 1 July heating degree days 182 252  
Cooling Degree Days 1 7  
Month to date cooling degree days 59 166  
Year to date cooling degree days 387 357  
Growing Degree Days 15 (Base 50)    
Moisture  
Dew Point 52 °F    
Average Humidity 62    
Maximum Humidity 86    
Minimum Humidity 38    
Precipitation  
Precipitation 0.00 in 0.10 in 1.48 in (1958)
Month to date precipitation 0.62 2.28  
Year to date precipitation 2.44 6.23  
Snow  
Snow 0.00 in - - ()
Month to date snowfall 0.0  
Since 1 July snowfall 0.0  
Snow Depth 0.00 in    
Sea Level Pressure  
Sea Level Pressure 30.21 in    
Wind  
Wind Speed 5 mph (ESE)    
Max Wind Speed 16 mph    
Max Gust Speed 21 mph    
Visibility 10 miles    
Events      
T = Trace of Precipitation, MM = Missing Value Source: NWS Daily Summary

Daily Weather History Graph

Daily Weather History Graph

Search for Another Location

Airport:

Trip Planner

Search our weather history database for the weather conditions in past years. The results will help you decide how hot, cold, wet, or windy it might be!

Date:

Astronomy

Mar. 30, 2013 Rise Set
Actual Time 7:20 AM EDT 7:43 PM EDT
Civil Twilight 6:56 AM EDT 8:06 PM EDT
Nautical Twilight 6:29 AM EDT 8:33 PM EDT
Astronomical Twilight 6:02 AM EDT 9:00 PM EDT
Moon 11:24 PM EDT (3/30) 9:35 AM EDT (3/30)
Length of Visible Light 13h 09m
Length of Day
12h 23m
Waning Gibbous, 86% of the Moon is Illuminated
Mar 30
Waning Gibbous
Apr 3
Last Quarter
Apr 10
New
Apr 18
First Quarter
Apr 25
Full

Hourly Weather History & Observations

Time (EDT) Temp. Dew Point Humidity Pressure Visibility Wind Dir Wind Speed Gust Speed Precip Events Conditions
12:53 AM 59.0 °F 48.9 °F 69% 30.23 in 10.0 mi ESE 4.6 mph - N/A   Clear
1:53 AM 57.0 °F 51.1 °F 81% 30.22 in 10.0 mi East 4.6 mph - N/A   Clear
2:53 AM 57.9 °F 51.1 °F 78% 30.23 in 10.0 mi Calm Calm - N/A   Clear
3:53 AM 55.9 °F 48.9 °F 77% 30.22 in 9.0 mi NE 3.5 mph - N/A   Scattered Clouds
4:53 AM 55.9 °F 50.0 °F 80% 30.21 in 9.0 mi ENE 3.5 mph - N/A   Mostly Cloudy
5:53 AM 55.9 °F 51.1 °F 84% 30.21 in 8.0 mi Calm Calm - N/A   Clear
6:53 AM 55.0 °F 50.0 °F 83% 30.22 in 10.0 mi ENE 3.5 mph - N/A   Clear
7:53 AM 57.0 °F 51.1 °F 81% 30.24 in 10.0 mi East 4.6 mph - N/A   Clear
8:53 AM 64.0 °F 52.0 °F 65% 30.26 in 10.0 mi East 6.9 mph - N/A   Clear
9:53 AM 69.1 °F 51.1 °F 53% 30.26 in 10.0 mi East 8.1 mph - N/A   Clear
10:53 AM 72.0 °F 52.0 °F 49% 30.26 in 10.0 mi ESE 10.4 mph - N/A   Scattered Clouds
11:53 AM 75.0 °F 48.9 °F 40% 30.25 in 10.0 mi SE 8.1 mph - N/A   Scattered Clouds
12:53 PM 75.9 °F 50.0 °F 40% 30.23 in 10.0 mi East 6.9 mph - N/A   Partly Cloudy
1:53 PM 75.0 °F 52.0 °F 44% 30.20 in 10.0 mi SW 13.8 mph 18.4 mph N/A   Clear
2:53 PM 75.0 °F 53.1 °F 46% 30.17 in 10.0 mi SW 15.0 mph - N/A   Clear
3:53 PM 73.0 °F 54.0 °F 51% 30.16 in 10.0 mi West 10.4 mph - N/A   Clear
4:53 PM 73.9 °F 54.0 °F 50% 30.15 in 10.0 mi West 9.2 mph - N/A   Partly Cloudy
5:53 PM 72.0 °F 53.1 °F 51% 30.14 in 10.0 mi West 6.9 mph - N/A   Clear
6:53 PM 71.1 °F 53.1 °F 53% 30.14 in 10.0 mi SW 5.8 mph - N/A   Clear
7:53 PM 69.1 °F 54.0 °F 58% 30.16 in 10.0 mi WSW 3.5 mph - N/A   Clear
8:53 PM 68.0 °F 54.0 °F 61% 30.17 in 10.0 mi Calm Calm - N/A   Clear
9:53 PM 64.9 °F 55.9 °F 73% 30.18 in 10.0 mi Calm Calm - N/A   Clear
10:53 PM 64.0 °F 55.0 °F 73% 30.20 in 10.0 mi Calm Calm - N/A   Clear
11:53 PM 61.0 °F 55.9 °F 83% 30.21 in 10.0 mi East 5.8 mph - N/A   Clear